RH
60 60 59 56 53 50 49 48 48 47 45 44 44 46 50 51 50 50 50 49 48 47 45 45 44 43 41 39 38 36 36 35 33 33 34 33 31 27 25 24 22 21 21 21 25 32 37 37 34 35 41 47 50 53 58 63 66 69 73 76 79 83 89 95 93 90 91 94 96 98 100 99 98 97 96 96 96 96 98 98 95 89 78 64 55
63 63 62 60 56 53 52 50 50 50 48 46 46 47 50 51 49 49 50 50 50 49 48 47 47 46 44 43 42 42 40 39 37 39 41 41 39 37 33 30 27 25 24 22 22 24 30 37 38 35 33 36 42 47 50 55 60 64 67 71 74 77 80 84 86 87 88 90 91 93 95 98 99 98 97 96 96 96 97 98 98 97 93 84 70
66 66 65 63 59 56 55 53 52 52 51 50 50 51 52 53 52 50 50 49 50 49 49 48 47 46 46 46 45 46 45 43 42 44 45 43 42 42 41 39 36 34 31 27 24 23 24 28 35 39 37 33 33 37 43 47 52 57 61 65 68 72 75 77 77 77 79 83 87 89 90 92 95 98 99 97 96 96 95 95 97 98 98 96 88
69 69 68 66 62 59 58 57 55 54 54 55 55 56 58 58 58 56 55 54 53 52 51 51 50 49 50 50 50 50 49 49 49 49 48 46 45 44 43 42 40 39 36 32 29 27 25 24 26 33 39 39 35 32 33 38 43 49 53 57 61 65 69 72 72 71 70 71 76 83 87 88 89 93 97 98 98 97 96 95 96 96 97 98 97
72 73 71 69 65 63 61 59 57 57 59 59 59 60 62 63 62 61 60 58 57 56 55 55 54 53 54 54 55 55 54 54 54 53 51 49 47 45 44 43 40 38 36 35 33 31 29 27 25 26 30 36 39 37 33 31 34 39 45 50 54 58 62 66 68 69 68 66 67 74 81 85 87 89 92 96 98 99 97 95 95 95 96 97 97
76 76 74 72 67 65 63 60 58 60 62 62 62 63 65 65 65 65 64 62 60 60 59 58 58 57 57 58 58 58 58 58 56 55 53 50 48 46 45 43 41 39 37 35 33 32 31 30 28 27 26 26 31 37 39 36 33 33 37 42 46 50 54 59 62 65 66 65 66 69 71 75 80 85 88 90 93 96 99 97 95 95 95 96 97
80 79 77 73 69 67 64 59 58 62 63 64 66 67 67 68 69 68 66 63 62 61 61 60 60 61 61 62 63 63 62 61 60 58 55 52 50 48 46 44 42 40 38 36 34 33 32 30 29 29 28 26 25 28 34 39 39 36 34 35 39 44 47 51 56 60 63 64 64 66 67 67 69 74 81 86 87 89 93 97 97 96 95 95 96
82 81 78 74 71 69 64 59 59 62 64 66 69 70 68 69 69 67 65 64 63 63 61 61 61 63 65 68 69 68 67 65 64 62 59 55 53 50 47 46 44 41 39 37 36 34 32 31 29 28 28 27 25 26 28 33 38 41 40 37 36 37 40 44 48 52 57 60 62 64 67 69 69 67 69 77 84 85 87 91 95 96 95 94 94
84 83 79 75 73 70 64 61 61 64 66 68 71 72 71 69 67 65 64 66 67 64 63 62 62 65 68 71 72 71 69 67 66 64 60 57 53 50 47 45 43 41 40 38 37 35 34 34 33 32 30 28 28 31 32 32 35 39 42 44 43 39 38 40 44 48 51 54 57 61 64 68 71 70 68 69 74 79 82 85 88 91 94 94 93
86 83 79 76 74 70 66 65 65 67 69 71 74 76 75 72 70 68 68 70 69 66 63 64 65 68 70 72 71 70 69 67 65 62 60 56 53 51 50 48 47 45 44 43 42 42 41 42 41 40 39 37 36 37 37 37 38 38 41 46 50 50 47 45 45 48 52 54 53 56 61 64 66 71 74 72 71 74 78 81 82 83 88 93 92
86 83 80 77 75 72 71 70 70 71 73 74 77 79 78 75 73 72 73 73 71 67 65 67 71 74 74 73 72 71 69 67 65 63 60 57 56 57 56 54 53 51 49 48 47 46 46 46 46 46 46 45 44 43 42 42 42 41 41 43 44 46 50 52 49 45 46 48 46 46 52 57 58 62 66 66 68 73 74 75 76 76 80 85 86
86 82 80 78 76 75 75 75 74 75 77 78 80 82 80 76 74 74 75 73 71 68 69 73 77 80 79 77 75 73 71 69 67 65 61 57 58 61 61 58 55 53 51 49 48 48 48 48 48 48 48 47 46 46 46 45 45 43 43 42 38 37 41 48 50 48 45 43 42 43 48 51 53 57 58 55 59 68 71 71 72 73 74 75 76
86 82 81 80 78 78 79 79 78 79 81 82 83 84 82 77 75 76 75 73 71 72 77 81 84 84 82 80 77 75 73 71 68 66 63 59 60 65 65 61 57 55 53 51 50 49 49 49 49 49 49 48 47 46 46 46 45 44 44 42 37 32 31 34 39 43 46 48 46 45 45 47 49 53 54 52 54 61 66 66 66 69 73 74 71
86 82 81 81 79 80 81 80 81 83 86 86 85 85 82 78 77 77 75 75 77 80 84 87 87 87 85 82 79 76 74 73 71 68 65 63 66 69 67 62 60 57 54 52 51 51 51 52 52 50 49 47 45 44 42 41 41 40 39 37 34 30 29 29 29 31 38 48 52 48 44 41 42 44 46 50 54 55 56 58 62 66 71 74 72
87 84 83 82 82 83 83 83 85 88 89 88 87 84 80 78 78 78 77 79 84 87 90 91 90 89 88 84 80 77 76 76 74 71 68 66 69 72 68 65 63 60 57 55 54 54 53 52 50 48 45 43 41 40 39 38 37 36 35 34 33 32 33 34 33 31 33 40 45 45 42 37 34 34 36 41 46 45 45 49 54 58 60 63 67
89 86 85 85 85 85 85 86 90 91 90 89 87 82 80 79 79 79 79 84 89 92 93 94 92 91 90 87 83 80 80 80 77 74 70 67 69 72 69 66 65 62 60 58 55 54 52 50 48 46 43 40 40 40 42 42 42 41 41 41 40 40 40 40 40 39 38 37 35 35 34 32 32 33 34 37 38 39 42 47 51 54 55 57 58
90 88 87 88 87 86 87 90 92 92 91 89 84 81 80 80 79 80 82 87 91 94 95 95 94 93 92 89 86 83 83 83 81 77 73 70 70 71 69 66 65 63 61 59 56 54 52 51 49 48 45 44 44 45 49 52 52 50 50 49 47 45 44 43 44 45 43 43 40 38 35 32 33 33 33 35 38 41 48 54 56 59 62 63 60
91 91 90 90 89 88 89 92 93 93 92 88 83 80 80 80 79 80 83 87 91 94 95 95 94 94 92 89 86 84 83 84 83 80 76 73 71 70 69 67 65 64 62 60 58 58 58 57 55 52 49 47 49 51 54 58 58 56 54 53 51 48 45 45 47 47 46 46 42 37 32 30 32 35 37 39 43 47 53 55 54 57 60 62 63
92 92 91 90 88 89 91 93 94 94 91 86 82 80 80 80 80 81 83 85 88 90 92 92 93 93 91 88 86 84 83 83 84 83 80 77 74 73 72 69 67 65 63 62 61 61 62 61 58 55 52 52 56 60 61 62 61 59 57 55 51 48 46 47 48 47 47 46 41 36 34 31 30 33 35 35 37 42 49 51 52 54 57 57 59
93 92 90 88 88 91 94 95 94 93 89 83 80 80 80 80 80 81 81 83 85 86 87 89 90 90 89 87 86 84 82 82 83 84 82 79 77 75 73 71 68 66 64 63 63 63 63 62 59 56 54 57 63 67 66 65 62 60 58 56 52 51 50 51 50 48 47 47 44 43 43 40 37 37 35 33 33 34 36 41 44 48 51 54 55
93 91 89 89 91 94 95 95 93 91 86 82 80 80 80 81 81 81 81 82 82 83 84 86 87 87 86 85 84 84 83 81 81 82 82 81 79 77 75 73 70 68 66 65 65 65 66 65 63 61 61 64 67 67 65 66 67 65 62 59 55 55 55 53 52 51 50 48 46 45 44 43 43 42 40 40 39 34 30 30 34 38 42 47 50
92 90 91 94 95 96 95 95 93 88 84 82 81 81 81 82 82 82 82 83 83 83 83 84 84 83 83 83 83 83 83 82 81 81 82 82 80 78 76 75 73 70 68 67 68 68 68 66 66 69 71 71 68 66 66 69 70 67 64 63 60 58 58 55 53 53 52 49 48 47 46 45 45 44 43 42 41 38 34 30 29 30 31 34 39
90 90 93 96 96 96 95 94 91 86 84 83 82 82 84 85 85 85 85 84 84 83 82 82 81 80 80 81 81 83 84 84 83 82 82 82 81 78 75 75 75 73 70 70 71 69 68 68 70 73 73 70 68 70 73 74 71 66 63 64 63 60 59 58 56 55 53 51 51 49 47 47 46 46 45 44 44 43 40 36 32 31 29 28 31
90 92 94 96 96 96 95 92 88 86 85 85 85 86 86 87 86 86 85 84 82 80 79 79 79 78 78 79 80 81 82 83 84 84 84 83 81 78 76 75 76 76 74 73 72 70 69 71 74 74 72 71 72 76 76 73 70 67 66 66 64 62 62 60 58 57 56 54 53 51 50 50 50 49 48 47 47 46 44 42 41 41 39 36 34
92 94 95 97 97 96 93 90 87 86 86 87 88 88 88 87 86 86 85 83 81 79 78 77 76 75 74 74 76 78 80 81 82 85 85 85 83 80 77 76 75 75 75 75 73 71 72 75 77 76 75 76 78 78 75 72 72 70 68 66 65 64 64 63 61 61 60 57 55 53 52 52 53 53 52 50 49 48 46 45 44 41 40 38 35
94 96 96 97 96 94 91 89 87 87 88 89 90 89 88 86 86 86 85 84 82 80 78 76 75 75 75 76 77 79 80 81 82 83 84 83 82 80 78 76 75 75 75 75 74 74 76 78 79 78 78 78 78 77 76 75 75 74 71 69 68 67 68 67 67 66 64 61 58 54 51 51 52 52 49 48 49 49 47 45 42 39 37 37 35
96 97 97 97 95 92 90 90 89 89 90 91 91 90 88 86 86 86 86 85 83 81 80 80 82 84 86 86 86 85 84 84 84 86 86 84 82 83 83 81 79 77 77 75 75 78 80 81 80 80 81 80 78 78 78 77 77 77 76 74 73 72 72 72 71 70 68 66 63 59 54 53 53 50 47 45 46 46 46 46 45 42 40 40 40
97 97 97 95 93 91 91 90 90 90 92 92 91 90 88 87 87 87 86 83 81 80 82 86 91 92 92 91 90 89 88 86 85 87 89 88 87 87 87 86 83 80 78 78 80 82 84 83 82 82 83 82 80 80 80 79 77 76 76 76 76 75 74 72 71 69 69 69 69 67 63 61 58 55 52 50 48 46 45 45 45 43 43 45 46
95 96 95 94 93 92 92 91 91 91 93 93 92 91 89 89 88 88 85 81 78 80 85 91 95 94 92 90 90 88 86 84 82 83 86 87 87 88 89 89 85 81 80 81 84 85 86 86 86 85 84 83 82 83 83 80 77 75 74 74 73 72 71 69 68 68 68 70 74 74 72 68 65 62 61 59 57 54 51 49 48 47 48 48 46
92 94 94 94 93 93 93 93 93 93 93 93 92 91 90 90 90 88 84 79 77 81 87 93 95 94 90 89 89 87 82 80 79 81 83 85 86 88 91 90 86 82 80 82 85 87 87 89 89 87 86 85 84 85 84 80 76 74 73 72 71 70 68 67 67 68 68 71 75 77 75 72 70 70 71 69 64 60 58 55 52 51 50 49 47
90 93 94 94 94 94 95 96 96 95 95 93 92 92 91 91 91 88 83 78 78 82 88 91 93 92 89 87 87 85 79 76 77 79 81 83 85 89 93 91 87 82 80 83 87 89 90 91 91 90 88 86 85 85 82 79 76 74 73 72 70 69 68 69 70 70 70 72 76 78 77 75 75 76 78 74 68 63 60 56 53 52 50 48 51
90 92 94 94 94 95 97 98 97 97 97 96 94 93 92 91 90 88 84 79 78 83 89 91 91 90 87 86 85 82 78 77 78 80 81 83 87 92 94 89 85 81 80 83 88 91 92 94 93 92 91 89 88 86 83 81 79 77 74 73 73 71 71 73 75 76 75 75 79 81 81 80 80 81 80 77 72 68 66 64 62 59 56 57 66
91 93 94 95 96 97 97 98 97 97 98 97 96 94 92 90 88 86 82 78 76 80 87 91 91 88 86 86 84 80 78 78 79 80 83 87 93 96 93 88 84 82 82 85 89 91 95 96 95 93 93 92 90 87 84 82 80 79 77 77 77 78 78 79 81 82 81 81 83 86 87 87 86 84 83 80 77 74 73 73 72 70 71 76 83
92 93 95 96 97 98 97 97 96 96 96 97 96 93 90 89 88 86 82 78 76 80 86 91 91 88 86 86 84 79 77 78 78 81 87 94 98 97 93 89 87 84 83 86 90 94 97 98 96 94 94 94 92 89 86 84 82 81 81 83 84 84 84 85 86 88 88 88 87 88 91 93 92 89 88 87 86 85 84 84 83 84 87 91 92
92 94 96 97 98 98 98 98 97 96 96 96 94 90 88 89 91 92 89 83 82 86 92 96 95 92 88 87 85 79 75 75 78 85 93 98 98 95 92 90 87 83 83 88 93 97 99 99 97 96 95 95 94 92 89 87 85 84 85 87 89 89 88 89 90 90 92 93 91 89 93 97 98 96 96 97 96 96 96 95 95 95 95 96 95
94 96 98 99 100 100 99 99 98 96 95 94 93 91 92 94 96 98 95 89 86 90 97 101 99 94 89 88 87 82 76 75 79 88 95 98 96 94 91 90 86 82 83 89 95 100 100 99 97 96 96 95 95 93 92 89 87 87 89 90 91 91 92 93 94 93 94 95 93 91 95 100 101 100 100 100 100 100 100 99 99 99 99 99 99
96 99 101 102 102 100 99 98 97 96 96 97 97 96 97 99 100 100 98 94 91 93 98 101 99 95 91 89 87 84 80 77 79 86 91 94 94 92 91 89 85 81 83 90 97 101 101 99 97 97 97 97 95 94 93 92 89 89 92 93 94 94 96 96 96 96 96 96 94 94 97 100 101 100 100 100 101 101 100 100 100 100 100 101 100
100 102 103 102 101 100 100 100 100 99 98 99 100 99 99 101 101 100 99 97 94 94 97 98 96 93 91 90 88 86 83 80 81 84 88 90 91 91 90 88 84 80 83 92 99 102 102 100 98 98 98 97 96 95 95 94 93 93 95 96 96 96 96 97 97 97 97 97 96 97 100 100 100 100 100 100 100 100 100 99 100 100 100 100 100
103 103 102 101 101 101 102 101 100 99 98 99 101 101 101 101 100 97 96 95 93 92 93 94 94 92 90 90 89 89 87 84 83 83 84 86 88 89 89 88 83 80 85 94 100 103 103 101 99 100 99 98 97 97 96 95 95 96 97 98 98 97 97 96 97 98 98 98 98 100 100 100 100 100 100 100 100 101 100 100 100 100 100 100 100
103 103 102 102 101 101 101 100 99 99 99 99 100 101 100 99 96 93 92 92 91 89 90 92 93 91 89 89 91 92 91 89 86 84 82 83 85 87 88 87 83 81 87 96 101 104 104 102 100 101 101 99 97 97 97 97 97 98 99 100 99 99 98 96 96 98 99 99 100 100 100 100 100 100 100 100 100 101 100 100 100 100 100 100 100
103 102 101 101 101 100 100 99 99 99 97 95 94 96 96 93 90 89 88 88 87 87 88 90 91 90 89 90 93 95 95 93 90 86 83 82 83 85 88 88 83 83 89 97 102 105 105 103 101 101 100 99 98 98 99 100 99 99 100 101 100 100 99 97 96 96 98 100 101 100 100 100 100 101 101 101 101 101 101 100 100 100 100 100 100
102 102 101 101 100 98 97 96 95 94 92 90 89 90 91 90 88 87 86 86 86 86 86 85 85 86 87 88 91 95 96 96 93 90 86 84 82 83 87 87 83 84 91 99 103 105 105 103 101 100 99 99 99 99 100 101 100 100 101 101 101 101 101 99 97 95 96 98 100 101 100 100 100 101 101 100 100 100 100 100 100 100 100 100 100
102 100 98 97 94 92 90 90 90 89 89 89 88 89 90 90 90 89 88 88 87 85 83 81 79 81 83 85 88 92 95 97 96 93 90 87 83 82 85 86 84 85 92 100 103 105 104 102 101 101 100 99 100 100 100 100 100 100 100 101 101 102 101 100 98 95 93 95 99 100 100 100 101 101 101 100 100 100 100 99 99 99 99 99 99
95 93 90 89 89 89 89 89 90 90 91 91 91 91 92 93 93 93 92 90 87 84 82 80 79 79 79 80 84 88 92 96 98 96 93 90 86 83 84 85 85 86 92 99 103 104 104 102 101 101 101 101 101 100 100 101 100 100 100 100 100 101 101 100 98 95 93 94 97 99 100 101 101 101 101 101 100 100 100 99 99 99 98 98 98
89 89 89 90 91 92 92 92 92 92 93 93 93 92 91 92 92 92 90 88 85 83 82 82 81 79 77 76 79 82 86 92 97 97 95 92 89 85 83 83 85 87 92 98 102 104 104 102 102 102 102 102 101 100 101 101 101 100 100 99 99 100 101 101 100 95 92 94 96 97 97 99 100 100 101 101 101 101 101 100 100 99 98 98 97
92 93 94 95 94 94 94 93 92 92 92 92 92 91 90 89 88 87 86 84 83 81 80 80 80 79 77 75 75 77 80 86 93 97 96 93 91 89 85 82 84 88 92 96 102 104 102 101 102 102 102 103 102 101 101 101 101 101 100 98 98 99 99 100 101 98 93 93 95 96 95 96 97 99 100 100 101 101 101 100 100 99 98 96 95
96 97 96 95 93 92 92 91 90 90 91 91 90 90 89 88 86 84 83 84 83 81 80 79 78 79 78 76 74 74 75 78 85 93 95 93 92 92 88 83 84 88 93 96 101 104 102 100 101 102 102 102 101 100 100 101 100 100 98 97 97 98 98 98 99 99 95 92 93 95 95 95 95 96 97 98 98 99 99 99 98 97 96 94 92
94 93 93 92 91 90 90 90 90 91 91 91 90 89 88 87 87 86 85 85 85 83 82 81 79 79 79 78 77 75 74 74 78 86 92 93 92 93 92 87 84 88 93 97 101 103 102 100 100 102 102 102 101 100 100 100 99 98 97 96 96 97 97 96 96 97 95 92 89 90 92 93 93 93 93 94 94 94 93 93 93 92 91 89 87
89 89 90 90 91 92 92 93 93 94 94 93 92 91 90 89 89 89 89 88 87 86 85 83 82 81 80 79 78 77 77 75 75 79 87 92 92 93 94 91 86 87 93 97 100 103 102 100 100 101 102 102 101 101 100 99 98 97 96 95 94 94 94 94 93 92 92 90 88 87 87 88 89 90 89 89 89 89 88 88 87 86 85 84 83
87 88 89 89 90 91 92 93 93 93 93 93 92 91 90 90 89 89 89 89 88 87 85 84 83 82 80 79 78 78 78 78 76 76 82 89 91 92 94 94 89 88 91 96 100 102 102 101 100 101 101 101 101 101 100 99 98 96 95 94 93 92 92 91 91 90 89 89 89 87 85 85 85 86 86 86 87 86 86 86 85 84 82 82 81
89 90 91 92 93 93 94 94 94 94 94 94 94 93 92 91 91 91 91 90 88 87 86 84 82 81 80 78 77 76 77 79 79 76 79 85 90 91 93 95 93 90 90 94 99 102 102 101 100 100 100 101 102 102 101 100 98 96 94 93 92 91 91 90 90 89 89 88 88 88 87 86 85 85 84 85 84 84 84 84 82 82 81 79 78